Time,TemperatureF,DewpointF,PressureIn,WindDirection,WindDirectionDegrees,WindSpeedMPH,WindSpeedGustMPH,Humidity,HourlyPrecipIn,Conditions,Clouds,dailyrainin,SoftwareType,DateUTC
2013-08-29 00:02:00,70.5,69.0,30.04,SSE,152,0.0,0.0,95,0.00,,,0.00,weatherlink.com 1.10,2013-08-29 05:02:00,
2013-08-29 00:17:00,70.4,69.0,30.04,SSE,152,0.0,0.0,95,0.00,,,0.00,weatherlink.com 1.10,2013-08-29 05:17:00,
2013-08-29 00:32:00,70.2,69.0,30.04,SSE,153,0.0,0.0,96,0.00,,,0.00,weatherlink.com 1.10,2013-08-29 05:32:00,
2013-08-29 00:47:00,70.4,69.0,30.04,SSE,152,0.0,0.0,96,0.00,,,0.00,weatherlink.com 1.10,2013-08-29 05:47:00,
2013-08-29 01:02:00,70.7,70.0,30.04,SSE,153,0.0,0.0,96,0.00,,,0.00,weatherlink.com 1.10,2013-08-29 06:02:00,
2013-08-29 01:17:00,70.6,70.0,30.04,SSE,152,0.0,0.0,96,0.00,,,0.00,weatherlink.com 1.10,2013-08-29 06:17:00,
2013-08-29 01:32:00,70.4,69.0,30.03,SSE,153,0.0,0.0,96,0.00,,,0.00,weatherlink.com 1.10,2013-08-29 06:32:00,
2013-08-29 01:47:00,70.2,69.0,30.03,SSE,153,0.0,0.0,96,0.00,,,0.00,weatherlink.com 1.10,2013-08-29 06:47:00,
2013-08-29 02:02:00,69.9,69.0,30.03,SSE,153,0.0,0.0,96,0.00,,,0.00,weatherlink.com 1.10,2013-08-29 07:02:00,
2013-08-29 02:17:00,69.5,68.0,30.03,SSE,152,0.0,0.0,96,0.00,,,0.00,weatherlink.com 1.10,2013-08-29 07:17:00,
2013-08-29 02:32:00,69.4,68.0,30.02,SSE,152,0.0,0.0,96,0.00,,,0.00,weatherlink.com 1.10,2013-08-29 07:32:00,
2013-08-29 02:47:00,69.3,69.0,30.03,SSE,153,0.0,0.0,97,0.00,,,0.00,weatherlink.com 1.10,2013-08-29 07:47:00,
2013-08-29 03:02:00,69.2,68.0,30.03,SSE,153,0.0,0.0,97,0.00,,,0.00,weatherlink.com 1.10,2013-08-29 08:02:00,
2013-08-29 03:17:00,69.0,68.0,30.02,SSE,153,0.0,0.0,97,0.00,,,0.00,weatherlink.com 1.10,2013-08-29 08:17:00,
2013-08-29 03:32:00,68.7,68.0,30.02,SSE,153,0.0,0.0,97,0.00,,,0.00,weatherlink.com 1.10,2013-08-29 08:32:00,
2013-08-29 03:47:00,68.5,68.0,30.02,SSE,152,0.0,0.0,97,0.00,,,0.00,weatherlink.com 1.10,2013-08-29 08:47:00,
2013-08-29 04:02:00,68.6,68.0,30.02,SSE,153,0.0,0.0,98,0.00,,,0.00,weatherlink.com 1.10,2013-08-29 09:02:00,
2013-08-29 04:17:00,68.7,68.0,30.02,SSE,153,0.0,0.0,98,0.00,,,0.00,weatherlink.com 1.10,2013-08-29 09:17:00,
2013-08-29 04:32:00,68.5,68.0,30.02,SSE,153,0.0,0.0,98,0.00,,,0.00,weatherlink.com 1.10,2013-08-29 09:32:00,
2013-08-29 04:47:00,68.3,68.0,30.02,SSE,153,0.0,0.0,98,0.00,,,0.00,weatherlink.com 1.10,2013-08-29 09:47:00,
2013-08-29 05:02:00,67.9,67.0,30.02,SSE,153,0.0,0.0,98,0.00,,,0.00,weatherlink.com 1.10,2013-08-29 10:02:00,
2013-08-29 05:17:00,67.8,67.0,30.03,SSE,153,0.0,0.0,98,0.00,,,0.00,weatherlink.com 1.10,2013-08-29 10:17:00,
2013-08-29 05:32:00,67.7,67.0,30.03,SSE,153,0.0,0.0,98,0.00,,,0.00,weatherlink.com 1.10,2013-08-29 10:32:00,
2013-08-29 05:47:00,67.3,67.0,30.03,SSE,153,0.0,0.0,98,0.00,,,0.00,weatherlink.com 1.10,2013-08-29 10:47:00,
2013-08-29 06:02:00,67.2,67.0,30.03,SSE,153,0.0,0.0,98,0.00,,,0.00,weatherlink.com 1.10,2013-08-29 11:02:00,
2013-08-29 06:17:00,67.2,67.0,30.04,SSE,153,0.0,0.0,98,0.00,,,0.00,weatherlink.com 1.10,2013-08-29 11:17:00,
2013-08-29 06:32:00,67.2,67.0,30.05,SSE,153,0.0,0.0,98,0.00,,,0.00,weatherlink.com 1.10,2013-08-29 11:32:00,
2013-08-29 06:47:00,67.3,67.0,30.05,SSE,153,0.0,0.0,98,0.00,,,0.00,weatherlink.com 1.10,2013-08-29 11:47:00,
2013-08-29 07:02:00,67.7,67.0,30.05,SSE,152,0.0,0.0,98,0.00,,,0.00,weatherlink.com 1.10,2013-08-29 12:02:00,
2013-08-29 07:17:00,69.0,69.0,30.06,SSE,150,0.0,0.0,98,0.00,,,0.00,weatherlink.com 1.10,2013-08-29 12:17:00,
2013-08-29 07:32:00,71.7,71.0,30.06,SSE,153,0.0,0.0,99,0.00,,,0.00,weatherlink.com 1.10,2013-08-29 12:32:00,
2013-08-29 07:47:00,74.1,73.0,30.07,SSE,153,0.0,0.0,97,0.00,,,0.00,weatherlink.com 1.10,2013-08-29 12:47:00,
2013-08-29 08:02:00,76.2,74.0,30.06,SSE,152,0.0,0.0,93,0.00,,,0.00,weatherlink.com 1.10,2013-08-29 13:02:00,
2013-08-29 08:17:00,79.4,74.0,30.06,SSE,150,0.0,0.0,83,0.00,,,0.00,weatherlink.com 1.10,2013-08-29 13:17:00,
2013-08-29 08:32:00,82.1,75.0,30.07,East,100,0.0,0.0,78,0.00,,,0.00,weatherlink.com 1.10,2013-08-29 13:32:00,
2013-08-29 08:48:00,82.4,73.0,30.07,ENE,75,0.0,1.0,73,0.00,,,0.00,weatherlink.com 1.10,2013-08-29 13:48:00,
2013-08-29 09:03:00,82.2,73.0,30.07,ENE,74,0.0,3.0,73,0.00,,,0.00,weatherlink.com 1.10,2013-08-29 14:03:00,
2013-08-29 09:18:00,83.3,73.0,30.07,ESE,103,0.0,2.0,71,0.00,,,0.00,weatherlink.com 1.10,2013-08-29 14:18:00,
2013-08-29 09:33:00,83.0,73.0,30.07,East,101,0.0,3.0,71,0.00,,,0.00,weatherlink.com 1.10,2013-08-29 14:33:00,
2013-08-29 09:48:00,84.5,73.0,30.07,SE,125,0.0,2.0,69,0.00,,,0.00,weatherlink.com 1.10,2013-08-29 14:48:00,
2013-08-29 10:03:00,85.8,73.0,30.07,East,101,0.0,2.0,66,0.00,,,0.00,weatherlink.com 1.10,2013-08-29 15:03:00,
2013-08-29 10:18:00,86.8,73.0,30.07,WNW,293,0.0,2.0,63,0.00,,,0.00,weatherlink.com 1.10,2013-08-29 15:18:00,
2013-08-29 10:33:00,86.6,72.0,30.07,NE,40,0.0,2.0,63,0.00,,,0.00,weatherlink.com 1.10,2013-08-29 15:33:00,
2013-08-29 10:48:00,87.0,72.0,30.06,North,360,1.0,3.0,62,0.00,,,0.00,weatherlink.com 1.10,2013-08-29 15:48:00,
2013-08-29 11:03:00,88.3,73.0,30.06,NW,304,0.0,3.0,61,0.00,,,0.00,weatherlink.com 1.10,2013-08-29 16:03:00,
2013-08-29 11:18:00,88.2,73.0,30.06,WSW,245,0.0,2.0,60,0.00,,,0.00,weatherlink.com 1.10,2013-08-29 16:18:00,
2013-08-29 11:33:00,88.9,72.0,30.06,West,278,0.0,1.0,57,0.00,,,0.00,weatherlink.com 1.10,2013-08-29 16:33:00,
2013-08-29 11:48:00,89.2,70.0,30.06,SW,231,0.0,2.0,53,0.00,,,0.00,weatherlink.com 1.10,2013-08-29 16:48:00,
2013-08-29 12:03:00,88.9,70.0,30.05,ESE,116,0.0,3.0,54,0.00,,,0.00,weatherlink.com 1.10,2013-08-29 17:03:00,
2013-08-29 12:18:00,88.5,72.0,30.05,North,6,0.0,1.0,58,0.00,,,0.00,weatherlink.com 1.10,2013-08-29 17:18:00,
2013-08-29 12:33:00,86.6,72.0,30.04,North,6,0.0,0.0,61,0.00,,,0.00,weatherlink.com 1.10,2013-08-29 17:33:00,
2013-08-29 12:48:00,90.4,72.0,30.04,SSW,208,1.0,2.0,55,0.00,,,0.00,weatherlink.com 1.10,2013-08-29 17:48:00,
2013-08-29 13:03:00,91.8,71.0,30.03,ESE,110,0.0,1.0,51,0.00,,,0.00,weatherlink.com 1.10,2013-08-29 18:03:00,
2013-08-29 13:18:00,91.3,72.0,30.03,SSW,210,1.0,2.0,53,0.00,,,0.00,weatherlink.com 1.10,2013-08-29 18:18:00,
2013-08-29 13:33:00,92.1,70.0,30.02,West,278,0.0,3.0,48,0.00,,,0.00,weatherlink.com 1.10,2013-08-29 18:33:00,
2013-08-29 13:48:00,91.6,72.0,30.02,NE,54,1.0,4.0,53,0.00,,,0.00,weatherlink.com 1.10,2013-08-29 18:48:00,
2013-08-29 14:03:00,91.5,71.0,30.01,WNW,285,2.0,3.0,51,0.00,,,0.00,weatherlink.com 1.10,2013-08-29 19:03:00,
2013-08-29 14:18:00,91.7,71.0,30.00,WSW,253,1.0,4.0,50,0.00,,,0.00,weatherlink.com 1.10,2013-08-29 19:18:00,
2013-08-29 14:33:00,91.9,71.0,30.00,NE,49,0.0,2.0,51,0.00,,,0.00,weatherlink.com 1.10,2013-08-29 19:33:00,
2013-08-29 14:48:00,91.3,71.0,29.99,WSW,256,1.0,2.0,51,0.00,,,0.00,weatherlink.com 1.10,2013-08-29 19:48:00,
2013-08-29 15:03:00,92.7,70.0,29.99,SE,146,2.0,4.0,48,0.00,,,0.00,weatherlink.com 1.10,2013-08-29 20:03:00,
2013-08-29 15:18:00,93.2,72.0,29.99,South,174,1.0,4.0,50,0.00,,,0.00,weatherlink.com 1.10,2013-08-29 20:18:00,
2013-08-29 15:33:00,93.0,71.0,29.98,West,278,0.0,2.0,49,0.00,,,0.00,weatherlink.com 1.10,2013-08-29 20:33:00,
2013-08-29 15:48:00,93.4,71.0,29.98,South,170,1.0,3.0,48,0.00,,,0.00,weatherlink.com 1.10,2013-08-29 20:48:00,
2013-08-29 16:04:00,91.2,71.0,29.98,WNW,295,0.0,2.0,52,0.00,,,0.00,weatherlink.com 1.10,2013-08-29 21:04:00,
2013-08-29 16:19:00,91.7,71.0,29.97,SSW,203,0.0,2.0,51,0.00,,,0.00,weatherlink.com 1.10,2013-08-29 21:19:00,
2013-08-29 16:34:00,92.6,72.0,29.97,SW,218,1.0,2.0,51,0.00,,,0.00,weatherlink.com 1.10,2013-08-29 21:34:00,
2013-08-29 16:49:00,92.5,71.0,29.97,WNW,290,1.0,2.0,50,0.00,,,0.00,weatherlink.com 1.10,2013-08-29 21:49:00,
2013-08-29 17:04:00,92.2,70.0,29.97,WNW,294,0.0,1.0,48,0.00,,,0.00,weatherlink.com 1.10,2013-08-29 22:04:00,
2013-08-29 17:19:00,92.7,71.0,29.97,SW,229,0.0,2.0,50,0.00,,,0.00,weatherlink.com 1.10,2013-08-29 22:19:00,
2013-08-29 17:34:00,92.2,70.0,29.97,WSW,249,0.0,2.0,49,0.00,,,0.00,weatherlink.com 1.10,2013-08-29 22:34:00,
2013-08-29 17:49:00,90.5,73.0,29.97,SSW,207,0.0,3.0,56,0.00,,,0.00,weatherlink.com 1.10,2013-08-29 22:49:00,
2013-08-29 18:04:00,87.5,72.0,29.97,WSW,256,0.0,2.0,61,0.00,,,0.00,weatherlink.com 1.10,2013-08-29 23:04:00,
2013-08-29 18:19:00,85.7,73.0,29.97,SSW,211,0.0,2.0,66,0.00,,,0.00,weatherlink.com 1.10,2013-08-29 23:19:00,
2013-08-29 18:34:00,84.7,73.0,29.97,South,187,0.0,1.0,69,0.00,,,0.00,weatherlink.com 1.10,2013-08-29 23:34:00,
2013-08-29 18:49:00,83.2,73.0,29.97,West,264,0.0,1.0,72,0.00,,,0.00,weatherlink.com 1.10,2013-08-29 23:49:00,
2013-08-29 19:04:00,82.1,74.0,29.98,West,264,0.0,0.0,76,0.00,,,0.00,weatherlink.com 1.10,2013-08-30 00:04:00,
2013-08-29 19:19:00,80.4,74.0,29.98,West,264,0.0,0.0,80,0.00,,,0.00,weatherlink.com 1.10,2013-08-30 00:19:00,
2013-08-29 19:34:00,78.9,73.0,29.98,WSW,237,0.0,0.0,83,0.00,,,0.00,weatherlink.com 1.10,2013-08-30 00:34:00,
2013-08-29 19:49:00,77.8,73.0,29.98,SW,236,0.0,0.0,84,0.00,,,0.00,weatherlink.com 1.10,2013-08-30 00:49:00,
2013-08-29 20:04:00,77.0,72.0,29.98,SW,236,0.0,0.0,84,0.00,,,0.00,weatherlink.com 1.10,2013-08-30 01:04:00,
2013-08-29 20:19:00,76.4,71.0,29.99,SW,236,0.0,0.0,84,0.00,,,0.00,weatherlink.com 1.10,2013-08-30 01:19:00,
2013-08-29 20:34:00,76.0,71.0,29.99,SW,236,0.0,0.0,85,0.00,,,0.00,weatherlink.com 1.10,2013-08-30 01:34:00,
2013-08-29 20:49:00,75.6,71.0,29.99,SW,236,0.0,0.0,84,0.00,,,0.00,weatherlink.com 1.10,2013-08-30 01:49:00,
2013-08-29 21:04:00,75.5,70.0,30.00,SW,236,0.0,0.0,84,0.00,,,0.00,weatherlink.com 1.10,2013-08-30 02:04:00,
2013-08-29 21:19:00,75.0,70.0,30.00,SW,236,0.0,0.0,84,0.00,,,0.00,weatherlink.com 1.10,2013-08-30 02:19:00,
2013-08-29 21:34:00,74.4,70.0,30.00,SW,236,0.0,0.0,86,0.00,,,0.00,weatherlink.com 1.10,2013-08-30 02:34:00,
2013-08-29 21:49:00,73.7,70.0,30.00,SW,236,0.0,0.0,88,0.00,,,0.00,weatherlink.com 1.10,2013-08-30 02:49:00,
2013-08-29 22:04:00,73.3,70.0,30.00,SW,236,0.0,0.0,89,0.00,,,0.00,weatherlink.com 1.10,2013-08-30 03:04:00,
2013-08-29 22:19:00,73.0,70.0,30.00,SW,236,0.0,0.0,90,0.00,,,0.00,weatherlink.com 1.10,2013-08-30 03:19:00,
2013-08-29 22:34:00,72.8,70.0,30.00,SW,236,0.0,0.0,91,0.00,,,0.00,weatherlink.com 1.10,2013-08-30 03:34:00,
2013-08-29 22:49:00,72.8,70.0,30.00,SW,236,0.0,0.0,90,0.00,,,0.00,weatherlink.com 1.10,2013-08-30 03:49:00,
2013-08-29 23:04:00,73.1,70.0,30.00,SW,236,0.0,0.0,90,0.00,,,0.00,weatherlink.com 1.10,2013-08-30 04:04:00,
2013-08-29 23:19:00,73.0,70.0,30.00,SW,236,0.0,0.0,90,0.00,,,0.00,weatherlink.com 1.10,2013-08-30 04:19:00,
2013-08-29 23:34:00,72.5,70.0,30.00,SW,236,0.0,0.0,91,0.00,,,0.00,weatherlink.com 1.10,2013-08-30 04:34:00,
2013-08-29 23:49:00,72.2,70.0,30.00,SW,236,0.0,0.0,92,0.00,,,0.00,weatherlink.com 1.10,2013-08-30 04:49:00,